DW5978 Whyalla SA AU current weather conditions

sailwx.info

Last reported at 2016-Dec-02 19:47 UTC.
Time now 2016-Dec-02 20:10 UTC

Location: S 33°01' E 137°32'.
View on Google Maps.

See reports from other nearby stations

  
Tides and Currents Weather Stations Pressure Air Temp Water Temp Dewpoint Dewpoint Depression Visibility Wind Speed Wind Dir Waves Ship Positions
date/time (UTC)wind fromknots sea level pressurealtimeterstation pressurevisibilityair tempwater tempwave heightnotes
2016-Dec-02 19:47
2016-Dec-02 19:32
2016-Dec-02 19:17 233 1 gusting 4 14.4
2016-Dec-02 19:02 214 1 gusting 5 15.0
2016-Dec-02 18:47 215 0 gusting 3 15.0
2016-Dec-02 18:32 235 0 gusting 3 15.0
2016-Dec-02 18:17 229 1 gusting 3 15.0
2016-Dec-02 18:02 212 1 gusting 5 15.0
2016-Dec-02 17:47 207 1 gusting 4 15.0
2016-Dec-02 17:32 221 2 gusting 5 15.0
2016-Dec-02 17:17 225 2 gusting 4 15.0
2016-Dec-02 17:02 243 2 gusting 3 15.0
2016-Dec-02 16:47 231 1 gusting 4 15.0
2016-Dec-02 16:32 238 1 gusting 4 15.6
2016-Dec-02 16:17 221 2 gusting 5 16.7
2016-Dec-02 16:02 193 1 gusting 4 16.7
2016-Dec-02 15:47 193 1 gusting 5 16.7
2016-Dec-02 15:31 207 1 gusting 5 16.7
2016-Dec-02 15:18 195 1 gusting 4 16.7
2016-Dec-02 15:02 213 1 gusting 4 17.2
2016-Dec-02 14:46 186 2 gusting 6 17.2
2016-Dec-02 14:31 173 3 gusting 7 17.2
2016-Dec-02 14:16 174 2 gusting 7 17.2
2016-Dec-02 14:01 183 3 gusting 8 17.2
2016-Dec-02 13:46 204 2 gusting 6 17.2
2016-Dec-02 13:31 160 2 gusting 6 17.8
2016-Dec-02 13:16 180 4 gusting 8 17.8
2016-Dec-02 13:01 193 5 gusting 9 17.8
2016-Dec-02 12:46 150 4 gusting 9 17.8
2016-Dec-02 12:31 170 4 gusting 8 17.8
2016-Dec-02 12:16 162 6 gusting 9 18.3
2016-Dec-02 12:01 153 4 gusting 9 18.3
2016-Dec-02 11:46 174 5 gusting 8 18.3
2016-Dec-02 11:32 162 5 gusting 9 18.3
2016-Dec-02 11:16 165 6 gusting 10 18.3
2016-Dec-02 11:01 165 5 gusting 11 18.3
2016-Dec-02 10:46 195 4 gusting 11 18.3
2016-Dec-02 10:31 188 6 gusting 14 18.3
2016-Dec-02 10:16 180 6 gusting 13 18.9
2016-Dec-02 10:01 222 6 gusting 12 18.9
2016-Dec-02 09:46 205 8 gusting 14 18.9
2016-Dec-02 09:31 128 8 gusting 18 19.4
2016-Dec-02 09:16 163 8 gusting 20 19.4
2016-Dec-02 09:01 195 12 gusting 21 20.0
2016-Dec-02 08:46 174 6 gusting 14 20.6
2016-Dec-02 08:31 205 8 gusting 19 20.6
2016-Dec-02 08:16 150 8 gusting 20 21.1
2016-Dec-02 08:01 256 9 gusting 19 21.7
2016-Dec-02 07:46 170 11 gusting 19 21.7
2016-Dec-02 07:31 241 7 gusting 18 22.2
2016-Dec-02 07:16 207 10 gusting 18 22.2
2016-Dec-02 07:01 153 8 gusting 17 22.2
2016-Dec-02 06:46 200 9 gusting 17 22.8
2016-Dec-02 06:31 210 12 gusting 17 22.8
2016-Dec-02 06:16 148 10 gusting 19 22.8
2016-Dec-02 06:01 207 8 gusting 17 22.8
2016-Dec-02 05:46 176 7 gusting 17 22.8
2016-Dec-02 05:31 187 9 gusting 16 23.3
2016-Dec-02 05:16 183 10 gusting 16 23.3
2016-Dec-02 05:01 222 8 gusting 15 23.3
2016-Dec-02 04:46 221 9 gusting 18 22.8
2016-Dec-02 04:31 193 6 gusting 14 23.3
2016-Dec-02 04:15 193 10 gusting 15 22.8
2016-Dec-02 04:00 185 8 gusting 15 22.2
2016-Dec-02 03:46 163 9 gusting 14 22.2
2016-Dec-02 03:31 188 7 gusting 19 22.2
2016-Dec-02 03:16 148 7 gusting 15 21.7
2016-Dec-02 03:01 167 7 gusting 14 21.7
2016-Dec-02 02:46 128 7 gusting 13 22.2
2016-Dec-02 02:31 210 9 gusting 13 21.7
2016-Dec-02 02:16 204 6 gusting 13 21.1
2016-Dec-02 02:02 201 7 gusting 14 21.1
2016-Dec-02 01:46 207 6 gusting 13 20.6
2016-Dec-02 01:31 138 6 gusting 12 20.6
2016-Dec-02 01:16 156 6 gusting 13 20.6
2016-Dec-02 01:01 143 6 gusting 13 20.0
2016-Dec-02 00:46 153 6 gusting 14 20.0
2016-Dec-02 00:31 143 6 gusting 13 20.0
2016-Dec-02 00:16 150 7 gusting 15 19.4
2016-Dec-02 00:01 162 6 gusting 14 19.4
2016-Dec-01 23:45 139 7 gusting 15 18.9
2016-Dec-01 23:30 136 7 gusting 13 18.9
2016-Dec-01 23:16 089 5 gusting 15 18.9
2016-Dec-01 23:01 112 8 gusting 18 18.9
2016-Dec-01 22:45 179 6 gusting 15 18.9
2016-Dec-01 22:30 207 8 gusting 16 18.3
2016-Dec-01 22:15 132 6 gusting 15 18.3
2016-Dec-01 22:00 139 6 gusting 14 18.3
2016-Dec-01 21:45 122 7 gusting 17 18.3
2016-Dec-01 21:30 136 7 gusting 14 17.8
2016-Dec-01 21:15 148 7 gusting 15 17.8
2016-Dec-01 21:00 150 6 gusting 13 17.2
2016-Dec-01 20:45
2016-Dec-01 20:30
2016-Dec-01 20:15
2016-Dec-01 20:00
2016-Dec-01 19:45
2016-Dec-01 19:30
2016-Dec-01 19:15 212 5 gusting 9 15.6
2016-Dec-01 19:00 146 3 gusting 6 15.6
2016-Dec-01 18:45 207 1 gusting 4 16.1
2016-Dec-01 18:30 158 2 gusting 8 16.7
2016-Dec-01 18:14 215 4 gusting 9 16.7
2016-Dec-01 17:59 212 2 gusting 10 16.7
2016-Dec-01 17:44 207 3 gusting 8 16.7
2016-Dec-01 17:29 165 4 gusting 9 16.7
2016-Dec-01 17:14 195 4 gusting 9 17.2
2016-Dec-01 17:00 208 4 gusting 8 17.2
2016-Dec-01 16:44 150 3 gusting 6 17.2
2016-Dec-01 16:29 163 4 gusting 8 17.2
2016-Dec-01 16:14 195 5 gusting 10 17.2
2016-Dec-01 15:59 165 4 gusting 8 17.8
2016-Dec-01 15:44 207 4 gusting 7 17.8
2016-Dec-01 15:29 148 5 gusting 9 17.8
2016-Dec-01 15:14 158 5 gusting 12 17.8
2016-Dec-01 14:59 228 5 gusting 11 17.8
2016-Dec-01 14:44 159 6 gusting 10 17.8
2016-Dec-01 14:29 186 5 gusting 13 17.8
2016-Dec-01 14:15 151 6 gusting 13 17.8
2016-Dec-01 13:59 177 8 gusting 14 17.8
2016-Dec-01 13:44 236 6 gusting 16 17.8
2016-Dec-01 13:29 183 6 gusting 13 18.3
2016-Dec-01 13:13 149 7 gusting 14 18.3
2016-Dec-01 12:59 212 7 gusting 13 18.3
2016-Dec-01 12:43 167 7 gusting 15 18.3
2016-Dec-01 12:28 201 6 gusting 17 18.9
2016-Dec-01 12:13 137 9 gusting 18 18.9
2016-Dec-01 11:58 192 12 gusting 20 18.9
2016-Dec-01 11:44 190 9 gusting 13 19.4
2016-Dec-01 11:28 190 6 gusting 17 19.4
2016-Dec-01 11:13 188 9 gusting 21 20.0
2016-Dec-01 10:58 204 10 gusting 18 20.0
2016-Dec-01 10:43 207 9 gusting 14 20.6
2016-Dec-01 10:28 203 6 gusting 13 21.1
2016-Dec-01 10:13 141 5 gusting 10 21.7
2016-Dec-01 09:58 146 3 gusting 7 22.2
2016-Dec-01 09:43 187 3 gusting 8 23.3
2016-Dec-01 09:29 131 4 gusting 6 23.9
2016-Dec-01 09:14 165 2 gusting 6 24.4
2016-Dec-01 08:59 153 2 gusting 8 25.0
2016-Dec-01 08:44 120 2 gusting 5 25.0
2016-Dec-01 08:28 120 2 gusting 6 25.0
2016-Dec-01 08:13 111 3 gusting 6 24.4
2016-Dec-01 07:58 134 1 gusting 5 24.4
2016-Dec-01 07:43 120 2 gusting 6 24.4
2016-Dec-01 07:28 135 4 gusting 8 25.0
2016-Dec-01 07:13 132 3 gusting 6 26.1
2016-Dec-01 06:58 117 2 gusting 6 26.7
2016-Dec-01 06:43 076 3 gusting 7 26.7
2016-Dec-01 06:28 071 4 gusting 6 27.2
2016-Dec-01 06:12 160 3 gusting 7 26.7
2016-Dec-01 05:57 070 5 gusting 8 27.2
2016-Dec-01 05:42 058 3 gusting 6 27.2
2016-Dec-01 05:28 115 6 gusting 7 26.7
2016-Dec-01 05:13 125 5 gusting 9 26.7
2016-Dec-01 04:58 143 3 gusting 8 26.1
2016-Dec-01 04:43 149 5 gusting 7 25.6
2016-Dec-01 04:27 127 3 gusting 7 25.0
2016-Dec-01 04:12 103 3 gusting 7 24.4
2016-Dec-01 03:57 159 4 gusting 6 24.4
2016-Dec-01 03:42 096 6 gusting 10 24.4
2016-Dec-01 03:27 107 4 gusting 8 24.4
2016-Dec-01 03:12 101 4 gusting 8 24.4
2016-Dec-01 02:56 176 3 gusting 7 25.0
2016-Dec-01 02:42 101 4 gusting 7 24.4
2016-Dec-01 02:27 112 4 gusting 7 23.9
2016-Dec-01 02:12 103 4 gusting 6 23.3
2016-Dec-01 01:57 167 2 gusting 6 24.4
2016-Dec-01 01:42 105 4 gusting 8 23.3
2016-Dec-01 01:27 119 2 gusting 6 22.8
2016-Dec-01 01:12 184 4 gusting 8 22.8
2016-Dec-01 00:57 198 3 gusting 7 22.2
2016-Dec-01 00:42 153 3 gusting 8 22.2
2016-Dec-01 00:27 101 2 gusting 5 21.7
2016-Dec-01 00:12 156 1 gusting 5 21.7
2016-Nov-30 23:57 148 4 gusting 8 21.1
2016-Nov-30 23:42 127 1 gusting 4 21.1
2016-Nov-30 23:28 159 3 gusting 6 20.6
2016-Nov-30 23:15 195 2 gusting 6 20.0
2016-Nov-30 23:04 141 3 gusting 6 19.4
2016-Nov-30 22:53 194 3 gusting 7 19.4
2016-Nov-30 22:39 134 3 gusting 7 18.9
2016-Nov-30 22:28 150 3 gusting 8 18.3
2016-Nov-30 22:08 195 3 gusting 7 17.8
2016-Nov-30 21:46 213 3 gusting 6 17.8
2016-Nov-30 21:27 201 0 gusting 6 16.7
2016-Nov-30 21:12 215 1 gusting 4 15.6
2016-Nov-30 20:57 215 2 gusting 4 14.4
2016-Nov-30 20:42 353 0 gusting 2 13.9
2016-Nov-30 20:27 354 12.8
2016-Nov-30 20:11